Lid_Strength_Index
6 9 10 9 9 10 11 12 12 11 9 11 11 11 10 9 10 10 10 10 10 10 9 8 8 7 7 8 8 8 8 7 8 8 8 9 9 9 8 8 8 8 8 8
9 11 8 8 8 9 10 11 12 10 9 12 12 12 10 9 10 9 10 10 10 10 10 9 8 8 8 8 8 8 8 8 8 8 8 9 9 9 8 8 8 8 8 8
11 9 7 8 9 10 10 12 12 13 11 10 12 12 12 10 10 9 10 10 10 10 10 9 9 8 8 9 8 8 8 8 8 8 9 9 9 9 9 9 9 8 8 8
10 8 8 9 10 9 12 10 11 11 12 15 12 17 13 12 11 11 11 11 11 10 9 9 8 8 8 8 8 8 7 8 8 8 9 9 10 10 9 9 8 8 8 8
10 10 10 10 10 9 11 10 11 11 13 14 13 16 14 12 13 12 12 11 11 10 10 9 8 8 7 7 7 7 7 7 8 8 8 9 9 9 8 8 7 8 8 8
10 8 9 9 9 10 9 11 11 11 13 16 13 15 15 13 12 12 11 11 10 10 10 9 8 7 8 7 7 7 7 7 7 7 8 8 9 9 9 8 8 8 8 8
11 10 10 9 11 10 11 13 15 17 17 16 13 15 14 12 11 11 11 11 10 10 10 9 8 8 7 7 7 6 7 7 7 7 7 8 8 8 7 7 7 7 7 8
13 14 11 10 11 12 12 13 16 19 18 15 13 16 13 10 10 10 10 10 10 10 10 9 8 8 7 7 7 7 7 7 7 7 7 7 7 7 7 7 7 7 7 7
13 13 11 10 10 11 12 14 12 14 14 16 14 13 11 11 12 11 11 10 10 10 9 8 8 7 7 7 7 7 7 7 7 7 7 7 7 7 7 7 7 7 7 7
11 14 12 11 11 11 13 11 15 15 19 20 14 14 13 13 12 11 11 11 10 9 9 9 8 7 7 7 6 7 7 7 7 7 7 7 7 7 7 7 7 7 7 7
11 13 14 13 14 13 14 14 14 14 14 17 18 14 12 12 11 12 11 10 9 9 9 9 8 8 7 7 7 7 7 7 7 7 7 7 7 7 7 7 7 7 7 7
10 12 15 14 11 11 12 13 13 16 16 15 16 15 11 11 10 11 11 9 8 8 8 8 8 8 8 8 7 7 7 7 7 7 7 7 7 7 7 7 7 7 7 7
10 13 16 15 14 13 14 13 12 13 14 16 17 15 11 11 11 10 11 10 9 8 8 8 8 8 8 8 8 7 7 7 7 7 7 7 7 7 7 7 6 7 7 8
9 12 14 15 13 12 15 13 13 14 17 16 14 13 12 11 11 11 10 10 9 8 8 8 9 8 8 8 8 8 8 7 7 7 7 7 7 6 6 6 7 7 7 8
11 14 13 12 11 12 12 12 13 15 14 16 15 14 11 11 10 10 9 10 10 9 8 8 9 9 8 8 8 8 8 7 7 8 7 7 6 6 6 7 7 7 7 8
11 14 13 14 12 12 13 13 13 13 13 14 14 14 11 10 11 11 10 10 10 10 8 8 8 8 9 8 8 8 8 7 7 8 8 6 6 6 7 7 7 7 7 8
12 13 14 16 13 13 15 13 13 13 12 13 15 13 11 12 11 11 11 10 10 9 10 8 8 7 7 8 7 7 7 7 8 8 7 7 7 7 7 7 7 8 8 8
12 13 13 15 15 19 14 12 11 12 12 12 12 12 10 10 9 10 9 10 10 9 9 9 8 8 7 8 8 7 7 7 8 8 8 7 8 8 7 7 8 8 8 8
10 12 15 16 16 14 13 12 13 13 13 11 11 11 10 10 11 10 9 9 9 9 8 8 8 7 8 7 8 7 7 8 8 8 8 8 8 8 7 8 8 8 8 8
10 11 13 16 18 19 14 11 10 10 15 10 10 10 10 10 13 11 9 9 9 8 8 8 8 8 7 7 8 8 8 7 8 7 7 8 7 7 8 8 8 8 8 8
13 13 15 15 16 14 11 11 10 15 14 10 9 9 10 11 10 9 9 9 9 9 8 8 8 8 8 7 8 8 8 8 7 7 7 7 7 8 8 8 8 8 8 9
14 15 15 14 16 17 10 11 13 11 10 9 9 9 9 9 8 8 8 9 8 8 8 8 8 8 7 7 7 8 9 8 8 7 7 8 8 8 7 8 9 8 9 10
13 12 13 13 14 10 9 10 9 9 9 10 9 8 8 8 8 8 8 8 8 8 8 8 8 8 8 8 8 9 9 8 7 7 8 8 8 7 8 9 9 9 9 10
9 8 11 11 10 10 9 8 8 8 9 8 8 8 8 8 8 8 7 8 8 8 9 8 9 8 8 8 8 8 8 7 7 8 8 8 8 8 9 9 9 10 10 11
8 8 9 11 10 10 9 8 8 7 8 8 8 8 8 8 8 8 8 8 8 8 8 9 9 8 8 8 8 7 7 7 8 8 8 8 9 9 10 9 10 10 10 10
7 9 9 11 9 9 9 8 7 8 8 7 8 8 8 8 8 8 8 8 8 8 8 9 8 8 8 8 7 7 7 7 8 8 9 9 10 10 10 10 10 8 9 9